| time (UTC) | temp F | wind direction | speed MPH | gust MPH | rain 1hr in | rain 24hr in | rain mn in | humidity % | barometer mb |
| 20260508012333 | 0 | 203 | 0.0 | 1.0 | 0.00 | 0.00 | 0.00 | 100 | |
| 20260508010458 | 0 | 191 | 0.0 | 1.0 | 0.00 | 0.00 | 0.00 | 100 | |
| 20260508004543 | 0 | 233 | 0.0 | 1.0 | 0.00 | 0.00 | 0.00 | 100 | |
| 20260508002846 | 0 | 233 | 1.0 | 1.0 | 0.00 | 0.00 | 0.00 | 100 | |
| 20260508001138 | 0 | 315 | 0.0 | 1.0 | 0.00 | 0.00 | 0.00 | 100 | |
| 20260507235453 | 0 | 254 | 1.0 | 3.0 | 0.00 | 0.00 | 0.00 | 100 | |
| 20260507233606 | 0 | 270 | 0.0 | 1.0 | 0.00 | 0.00 | 0.00 | 100 | |
| 20260507231941 | 0 | 270 | 1.0 | 4.0 | 0.00 | 0.00 | 0.00 | 100 | |
| 20260507230043 | 0 | 270 | 1.0 | 3.0 | 0.00 | 0.00 | 0.00 | 100 | |
| 20260507224403 | 0 | 233 | 1.0 | 4.0 | 0.00 | 0.00 | 0.00 | 100 | |
| 20260507222723 | 0 | 225 | 1.0 | 3.0 | 0.00 | 0.00 | 0.00 | 100 | |
| 20260507221038 | 0 | 234 | 3.0 | 6.0 | 0.00 | 0.00 | 0.00 | 100 | |
| 20260507215113 | 0 | 325 | 1.0 | 4.0 | 0.00 | 0.00 | 0.00 | 100 | |
| 20260507213513 | 0 | 237 | 1.0 | 2.0 | 0.00 | 0.00 | 0.00 | 100 | |
| 20260507211633 | 0 | 286 | 1.0 | 2.0 | 0.00 | 0.00 | 0.00 | 100 | |
| 20260507205953 | 0 | 233 | 1.0 | 3.0 | 0.00 | 0.00 | 0.00 | 100 | |
| 20260507204058 | 0 | 339 | 1.0 | 6.0 | 0.00 | 0.00 | 0.00 | 100 | |
| 20260507202448 | 0 | 329 | 1.0 | 3.0 | 0.00 | 0.00 | 0.00 | 100 | |
| 20260507200718 | 0 | 239 | 1.0 | 3.0 | 0.00 | 0.00 | 0.00 | 100 | |
| 20260507194749 | 0 | 285 | 1.0 | 6.0 | 0.00 | 0.00 | 0.00 | 100 | |
| 20260507192928 | 0 | 232 | 1.0 | 4.0 | 0.00 | 0.00 | 0.00 | 100 | |
| 20260507190946 | 0 | 225 | 1.0 | 4.0 | 0.00 | 0.00 | 0.00 | 100 | |
| 20260507185138 | 0 | 219 | 2.0 | 6.0 | 0.00 | 0.00 | 0.00 | 100 | |
| 20260507183213 | 0 | 285 | 1.0 | 4.0 | 0.00 | 0.00 | 0.00 | 100 | |
| 20260507181322 | 0 | 310 | 2.0 | 7.0 | 0.00 | 0.00 | 0.00 | 100 | |
| 20260507175638 | 0 | 293 | 1.0 | 2.0 | 0.00 | 0.00 | 0.00 | 100 | |
| 20260507173758 | 0 | 270 | 1.0 | 4.0 | 0.00 | 0.00 | 0.00 | 100 | |
| 20260507172158 | 0 | 281 | 1.0 | 4.0 | 0.00 | 0.00 | 0.00 | 100 | |
| 20260507170543 | 0 | 285 | 1.0 | 4.0 | 0.00 | 0.00 | 0.00 | 100 | |
| 20260507164858 | 0 | 251 | 1.0 | 3.0 | 0.00 | 0.00 | 0.00 | 100 | |
| 20260507163126 | 0 | 270 | 1.0 | 4.0 | 0.00 | 0.00 | 0.00 | 100 | |
| 20260507161318 | 0 | 306 | 1.0 | 5.0 | 0.00 | 0.00 | 0.00 | 100 | |
| 20260507155517 | 0 | 270 | 1.0 | 4.0 | 0.00 | 0.00 | 0.00 | 100 | |
| 20260507153923 | 0 | 256 | 1.0 | 4.0 | 0.00 | 0.00 | 0.00 | 100 | |
| 20260507152326 | 0 | 259 | 1.0 | 4.0 | 0.00 | 0.00 | 0.00 | 100 | |
| 20260507150603 | 0 | 240 | 1.0 | 4.0 | 0.00 | 0.00 | 0.00 | 100 | |
| 20260507144846 | 0 | 229 | 2.0 | 4.0 | 0.00 | 0.00 | 0.00 | 100 | |
| 20260507142946 | 0 | 221 | 1.0 | 5.0 | 0.00 | 0.00 | 0.00 | 100 | |
| 20260507140953 | 0 | 244 | 1.0 | 3.0 | 0.00 | 0.00 | 0.00 | 100 | |
| 20260507135038 | 0 | 270 | 1.0 | 3.0 | 0.00 | 0.00 | 0.00 | 100 | |
| 20260507133118 | 0 | 270 | 3.0 | 4.0 | 0.00 | 0.00 | 0.00 | 100 | |
| 20260507131418 | 0 | 270 | 2.0 | 4.0 | 0.00 | 0.00 | 0.00 | 100 | |
| 20260507125700 | 0 | 247 | 1.0 | 3.0 | 0.00 | 0.00 | 0.00 | 100 | |
| 20260507123912 | 0 | 270 | 0.0 | 1.0 | 0.00 | 0.00 | 0.00 | 100 | |
| 20260507122203 | 0 | 270 | 1.0 | 2.0 | 0.00 | 0.00 | 0.00 | 100 | |
| 20260507120246 | 0 | 270 | 1.0 | 2.0 | 0.00 | 0.00 | 0.00 | 100 | |
| 20260507114453 | 0 | 249 | 1.0 | 3.0 | 0.00 | 0.00 | 0.00 | 100 | |
| 20260507112826 | 0 | 248 | 1.0 | 3.0 | 0.00 | 0.00 | 0.00 | 100 | |
| 20260507111226 | 0 | 244 | 1.0 | 3.0 | 0.00 | 0.00 | 0.00 | 100 | |
| 20260507105533 | 0 | 270 | 1.0 | 1.0 | 0.00 | 0.00 | 0.00 | 100 | |
| 20260507103833 | 0 | 270 | 0.0 | 1.0 | 0.00 | 0.00 | 0.00 | 100 | |
| 20260507102133 | 0 | 270 | 0.0 | 1.0 | 0.00 | 0.00 | 0.00 | 100 | |
| 20260507100443 | 0 | 270 | 0.0 | 1.0 | 0.00 | 0.00 | 0.00 | 100 | |
| 20260507094813 | 0 | 252 | 1.0 | 3.0 | 0.00 | 0.00 | 0.00 | 100 | |
| 20260507093110 | 0 | 257 | 1.0 | 2.0 | 0.00 | 0.00 | 0.00 | 100 | |
| 20260507091335 | 0 | 270 | 1.0 | 2.0 | 0.00 | 0.00 | 0.00 | 100 | |
| 20260507085738 | 0 | 270 | 0.0 | 1.0 | 0.00 | 0.00 | 0.00 | 100 | |
| 20260507083913 | 0 | 311 | 0.0 | 1.0 | 0.00 | 0.00 | 0.00 | 100 | |
| 20260507082148 | 0 | 270 | 0.0 | 1.0 | 0.00 | 0.00 | 0.00 | 100 | |
| 20260507080233 | 0 | 270 | 0.0 | 1.0 | 0.00 | 0.00 | 0.00 | 100 | |
| 20260507074608 | 0 | 270 | 0.0 | 1.0 | 0.00 | 0.00 | 0.00 | 100 | |
| 20260507072646 | 0 | 270 | 0.0 | 1.0 | 0.00 | 0.00 | 0.00 | 100 | |
| 20260507070653 | 0 | 270 | 0.0 | 1.0 | 0.00 | 0.00 | 0.00 | 100 | |
| 20260507064758 | 0 | 270 | 1.0 | 1.0 | 0.00 | 0.00 | 0.00 | 100 | |
| 20260507062840 | 0 | 270 | 0.0 | 1.0 | 0.00 | 0.00 | 0.00 | 100 | |
| 20260507060916 | 0 | 270 | 0.0 | 1.0 | 0.00 | 0.00 | 0.00 | 100 | |
| 20260507055023 | 0 | 306 | 0.0 | 1.0 | 0.00 | 0.00 | 0.00 | 100 | |
| 20260507053331 | 0 | 315 | 0.0 | 1.0 | 0.00 | 0.00 | 0.00 | 100 | |
| 20260507051434 | 0 | 311 | 0.0 | 1.0 | 0.00 | 0.00 | 0.00 | 100 | |
| 20260507045816 | 0 | 270 | 0.0 | 1.0 | 0.00 | 0.00 | 0.00 | 100 | |
| 20260507043853 | 0 | 270 | 0.0 | 1.0 | 0.00 | 0.00 | 0.00 | 100 | |
| 20260507042018 | 0 | 270 | 0.0 | 1.0 | 0.00 | 0.00 | 0.00 | 100 | |
| 20260507040146 | 0 | 270 | 0.0 | 2.0 | 0.00 | 0.00 | 0.00 | 100 | |
| 20260507034334 | 0 | 270 | 1.0 | 1.0 | 0.00 | 0.00 | 0.00 | 100 | |
| 20260507032418 | 0 | 270 | 1.0 | 2.0 | 0.00 | 0.00 | 0.00 | 100 | |
| 20260507030713 | 0 | 270 | 0.0 | 1.0 | 0.00 | 0.00 | 0.00 | 100 | |
| 20260507025103 | 0 | 246 | 1.0 | 3.0 | 0.00 | 0.00 | 0.00 | 100 | |
| 20260507023153 | 0 | 253 | 1.0 | 2.0 | 0.00 | 0.00 | 0.00 | 100 | |
| 20260507021432 | 0 | 248 | 1.0 | 2.0 | 0.00 | 0.00 | 0.00 | 100 | |
| 20260507021358 | 0 | 248 | 1.0 | 2.0 | 0.00 | 0.00 | 0.00 | 100 | |
| 20260507015533 | 0 | 248 | 1.0 | 4.0 | 0.00 | 0.00 | 0.00 | 100 | |
| 20260507013928 | 0 | 245 | 1.0 | 3.0 | 0.00 | 0.00 | 0.00 | 100 |